Location: Kra?nica
(53.4833°N, 14.6167°E)
Time: 21:14:57
(UTC+00:00)

Cosmos 1741 Rocket - Pass Details

Date: 23 May 2024
Orbit: 758 x 781 km, 74.0° (Epoch: 21 June)

Event Time Altitude Azimuth Distance (km) Brightness Sun altitude
Exits shadow 01:51:23 - 220° (SW) 2,416 5.9 -7.0°
Reaches altitude 10° 01:51:41 10° 221° (SW) 2,299 5.8 -7.0°
Maximum altitude 01:56:50 59° 301° (WNW) 886 4.3 -6.5°
Drops below altitude 10° 02:02:04 10° 21° (NNE) 2,329 7.9 -6.0°
Sets 02:04:30 0° 26° (NNE) 3,263 9.0 -5.7°
